Location: Bh?mavarapp?du
(16.7041°N, 80.6518°E)
Time: 06:43:36
(UTC+00:00)

Timation 2 Rocket - Pass Details

Date: 21 April 2021
Orbit: 907 x 1074 km, 70.0° (Epoch: 06 May)

Event Time Altitude Azimuth Distance (km) Brightness Sun altitude
Rises 14:23:44 0° 192° (SSW) 3,841 7.0 -21.3°
Reaches altitude 10° 14:26:23 10° 190° (S) 2,876 6.3 -21.9°
Maximum altitude 14:33:08 74° 106° (ESE) 1,077 4.0 -23.4°
Drops below altitude 10° 14:39:39 10° 23° (NNE) 2,783 6.4 -24.9°
Sets 14:42:11 0° 21° (NNE) 3,709 7.1 -25.4°
